Home   Weather   Stuhr   Past weeks

Flag for Germany Past Weather in Stuhr, Lower Saxony, Germany — Yesterday and Last 2 Weeks

45 °F

Partly cloudy.

Feels Like: 41 °F
Forecast: 36 / 49 °F
Wind: 7 mph from Northeast

Location: Bremen Airport

Current Time: Oct 25, 2016 at 5:15:04 AM

Latest Report: Oct 25, 2016 at 4:20 AM

Visibility: 3 mi

Pressure: 30.07 "Hg

Humidity: 93%

Dew Point: 43 °F

Location of StuhrLocation

Past Weather in Stuhr — Graph


Stuhr Temperature Yesterday

Maximum temperature yesterday: 46 °F (at 1:20 PM)
Minimum temperature yesterday: 36 °F (at 2:20 AM)
Average temperature yesterday: 43 °F

High & Low Weather Summary for the Past Weeks

High63 °F (Oct 16, 3:50 PM)100% (Oct 10, 3:50 AM)30.27 "Hg (Oct 10, 3:50 AM)
Low34 °F (Oct 10, 5:20 AM)54% (Oct 10, 2:20 PM)29.74 "Hg (Oct 15, 3:50 AM)
Average48 °F89%30.04 "Hg
* Reported Oct 10 3:20 AM — Oct 25 3:50 AM, Stuhr, Weather by CustomWeather, © 2016

Note: Actual official high and low records may vary slightly from our data, if they occured in-between our weather recording intervals... More about our weather records


Stuhr Weather History for the Previous 24 Hours

Scroll right to see more
Time TempWeatherWind HumidityBarometerVisibility
3:50 AM
Tue, Oct 25
45 °FPassing clouds.6 mph93%30.07 "Hg4 mi
3:20 AM45 °FPassing clouds.7 mph93%30.04 "Hg4 mi
2:50 AM45 °FPartly cloudy.8 mph93%30.04 "Hg4 mi
2:20 AM45 °FPartly cloudy.9 mph93%30.04 "Hg4 mi
1:50 AM45 °FPassing clouds.8 mph93%30.04 "Hg4 mi
1:20 AM45 °FLight rain. Passing clouds.9 mph93%30.07 "Hg4 mi
12:50 AM45 °FLight rain. Passing clouds.9 mph93%30.04 "Hg4 mi
12:20 AM45 °FPassing clouds.10 mph93%30.01 "Hg4 mi
11:50 PM
Mon, Oct 24
45 °FPassing clouds.8 mph93%30.04 "Hg4 mi
11:20 PM45 °FPassing clouds.9 mph93%30.04 "Hg4 mi
10:50 PM45 °FLight rain. Passing clouds.9 mph93%30.04 "Hg4 mi
10:20 PM45 °FLight rain. Passing clouds.8 mph93%30.04 "Hg4 mi
9:50 PM45 °FLight rain. Passing clouds.8 mph93%30.04 "Hg6 mi
9:20 PM45 °FPassing clouds.9 mph87%30.04 "Hg6 mi
8:50 PM45 °FPassing clouds.9 mph87%30.01 "Hg6 mi
8:20 PM45 °FPassing clouds.10 mph87%30.01 "Hg6 mi
7:50 PM45 °FPassing clouds.12 mph87%30.04 "Hg5 mi
7:20 PM45 °FPassing clouds.8 mph87%30.01 "Hg4 mi
6:50 PM45 °FMostly cloudy.10 mph87%30.01 "Hg4 mi
6:20 PM46 °FMostly cloudy.12 mph82%30.01 "Hg4 mi
5:50 PM46 °FOvercast.12 mph87%30.01 "Hg4 mi
5:20 PM46 °FOvercast.10 mph87%30.01 "Hg4 mi
4:50 PM46 °FOvercast.12 mph87%30.01 "Hg4 mi
4:20 PM46 °FPartly sunny.12 mph87%30.01 "Hg4 mi
3:50 PM46 °FPartly sunny.12 mph87%30.01 "Hg5 mi
3:20 PM46 °FBroken clouds.12 mph87%30.01 "Hg5 mi
2:50 PM46 °FBroken clouds.12 mph87%29.98 "Hg6 mi
2:20 PM46 °FBroken clouds.10 mph87%29.98 "Hg5 mi
1:50 PM46 °FBroken clouds.9 mph87%30.01 "Hg4 mi
1:20 PM46 °FPartly sunny.9 mph87%30.01 "Hg4 mi
12:50 PM45 °FPartly sunny.9 mph87%30.01 "Hg4 mi
12:20 PM45 °FPartly sunny.9 mph87%30.01 "Hg4 mi
11:50 AM43 °FPartly sunny.9 mph93%30.04 "Hg3 mi
11:20 AM43 °FFog.9 mph93%30.04 "Hg3 mi
10:50 AM43 °FFog.8 mph93%30.04 "Hg3 mi
10:20 AM41 °FFog.9 mph100%30.04 "Hg2 mi
9:50 AM41 °FFog.8 mph100%30.04 "Hg1 mi
9:20 AM41 °FFog.8 mph100%30.04 "Hg1 mi
8:50 AM41 °FFog.9 mph100%30.01 "Hg1 mi
8:20 AM41 °FFog.8 mph100%30.01 "Hg1 mi
7:50 AM41 °FFog.7 mph100%30.01 "Hg1 mi
7:20 AM41 °FFog.8 mph100%30.01 "Hg1 mi
6:50 AM39 °FFog.5 mph100%30.01 "Hg2 mi
6:20 AM39 °FPassing clouds.7 mph100%30.01 "Hg4 mi
5:50 AM37 °FPassing clouds.7 mph100%29.98 "Hg4 mi
5:20 AM39 °FPassing clouds.8 mph100%29.98 "Hg4 mi
Weather by CustomWeather, © 2016

See weather overviewHow to use our weather pages